GW1804 Weather Reports


time (UTC)temp
F
wind
direction
speed
knots
gust
knots
rain 1hr
in
rain 24hr
in
rain mn
in
humidity
%
barometer
mb
20260507065034 59 0 0.0 0.9 0.00 0.00 0.00 87 1017.3
20260507064547 59 0 0.0 0.0 0.00 0.00 0.00 87 1017.3
20260507064037 59 0 0.0 0.0 0.00 0.00 0.00 87 1017.4
20260507063533 59 0 0.0 0.0 0.00 0.00 0.00 87 1017.3
20260507063047 59 0 0.0 0.0 0.00 0.00 0.00 87 1017.4
20260507062535 59 0 0.0 0.0 0.00 0.00 0.00 87 1017.4
20260507062033 59 0 0.0 0.0 0.00 0.00 0.00 87 1017.4
20260507061544 59 0 0.0 0.0 0.00 0.00 0.00 87 1017.4
20260507061033 59 0 0.0 0.0 0.00 0.00 0.00 87 1017.4
20260507060535 59 0 0.0 0.0 0.00 0.00 0.00 87 1017.3
20260507060048 59 0 0.0 0.0 0.00 0.00 0.00 87 1017.4
20260507055551 59 0 0.0 0.9 0.00 0.00 0.00 87 1017.4
20260507055038 59 0 0.0 0.9 0.00 0.00 0.00 87 1017.4
20260507054621 59 0 0.0 0.9 0.00 0.00 0.00 87 1017.5
20260507054035 59 0 0.0 0.0 0.00 0.00 0.00 87 1017.5
20260507053535 59 0 0.0 0.0 0.00 0.00 0.00 87 1017.4
20260507053049 60 0 0.0 0.0 0.00 0.00 0.00 87 1017.4
20260507052533 60 0 0.0 0.0 0.00 0.00 0.00 87 1017.4
20260507052032 60 0 0.0 0.0 0.00 0.00 0.00 87 1017.3
20260507051547 60 0 0.0 0.0 0.00 0.00 0.00 87 1017.4
20260507051035 60 0 0.0 0.9 0.00 0.00 0.00 87 1017.4
20260507050533 60 0 0.0 0.9 0.00 0.00 0.00 87 1017.3
20260507050056 60 0 0.0 0.9 0.00 0.00 0.00 87 1017.3
20260507045532 60 0 0.0 0.9 0.00 0.00 0.00 87 1017.3
20260507045033 60 0 0.0 0.9 0.00 0.00 0.00 87 1017.3
20260507044552 60 0 0.0 3.5 0.00 0.00 0.00 87 1017.3
20260507044032 60 336 0.0 3.5 0.00 0.00 0.00 87 1017.3
20260507043532 60 0 0.0 1.7 0.00 0.00 0.00 87 1017.3
20260507043053 60 0 0.0 1.7 0.00 0.00 0.00 87 1017.3
20260507042533 60 0 0.0 0.9 0.00 0.00 0.00 86 1017.2
20260507042032 60 0 0.0 1.7 0.00 0.00 0.00 86 1017.2
20260507041559 60 0 0.0 1.7 0.00 0.00 0.00 86 1017.2
20260507041032 60 0 0.0 2.6 0.00 0.00 0.00 86 1017.1
20260507040533 61 0 0.0 2.6 0.00 0.00 0.00 86 1017.2
20260507040051 61 0 0.0 1.7 0.00 0.00 0.00 86 1017.1
20260507035533 61 0 0.0 1.7 0.00 0.00 0.00 86 1017.2
20260507035032 61 331 0.0 2.6 0.00 0.00 0.00 86 1017.1
20260507034558 61 0 0.0 2.6 0.00 0.00 0.00 86 1017.1
20260507034032 61 340 0.0 1.7 0.00 0.00 0.00 86 1017.1
20260507033532 61 336 0.0 1.7 0.00 0.00 0.00 86 1017.0
20260507033046 61 0 0.0 1.7 0.00 0.00 0.00 85 1017.0
20260507032531 61 0 0.0 2.6 0.00 0.00 0.00 85 1017.0
20260507032032 61 323 0.0 2.6 0.00 0.00 0.00 85 1016.9
20260507031555 61 0 0.0 2.6 0.00 0.00 0.00 85 1016.9
20260507031033 62 289 0.9 2.6 0.00 0.00 0.00 85 1016.8
20260507030533 62 287 0.9 2.6 0.00 0.00 0.00 84 1016.8
20260507030056 62 0 0.9 2.6 0.00 0.00 0.00 84 1016.7
20260507025532 62 0 0.0 2.6 0.00 0.00 0.00 83 1016.7
20260507025032 62 302 0.0 2.6 0.00 0.00 0.00 83 1016.7
20260507024548 62 302 0.9 2.6 0.00 0.00 0.00 83 1016.6
20260507024032 62 292 0.9 2.6 0.00 0.00 0.00 83 1016.5
20260507023534 63 289 0.9 3.5 0.00 0.00 0.00 82 1016.5
20260507023051 63 306 1.7 4.3 0.00 0.00 0.00 82 1016.6
20260507022535 63 291 1.7 5.2 0.00 0.00 0.00 81 1016.5
20260507022034 63 296 1.7 6.1 0.00 0.00 0.00 80 1016.5
20260507021546 64 290 2.6 6.1 0.00 0.00 0.00 80 1016.5
20260507021031 64 293 1.7 6.1 0.00 0.00 0.00 80 1016.5
20260507020531 64 302 1.7 6.1 0.00 0.00 0.00 80 1016.5
20260507020050 64 303 2.6 6.1 0.00 0.00 0.00 80 1016.4
20260507015534 64 281 2.6 7.0 0.00 0.00 0.00 80 1016.3
20260507015031 65 296 2.6 7.0 0.00 0.00 0.00 80 1016.3
20260507014555 65 286 3.5 7.8 0.00 0.00 0.00 79 1016.3
20260507014035 65 279 2.6 7.8 0.00 0.00 0.00 79 1016.4
20260507013534 65 309 2.6 7.0 0.00 0.00 0.00 78 1016.3
20260507013048 65 302 3.5 7.8 0.00 0.00 0.00 77 1016.3
20260507012532 66 323 3.5 7.8 0.00 0.00 0.00 78 1016.4
20260507012034 66 271 2.6 7.8 0.00 0.00 0.00 78 1016.4
20260507011548 66 312 3.5 7.8 0.00 0.00 0.00 77 1016.3
20260507011031 66 305 3.5 7.0 0.00 0.00 0.00 77 1016.3
20260507010531 66 328 2.6 7.8 0.00 0.00 0.00 77 1016.2
20260507010045 66 309 4.3 7.8 0.00 0.00 0.00 76 1016.2
20260507005531 66 269 2.6 7.8 0.00 0.00 0.00 76 1016.3
20260507005034 66 259 3.5 7.0 0.00 0.00 0.00 77 1016.2
20260507004546 66 309 3.5 7.0 0.00 0.00 0.00 77 1016.2
20260507004035 66 37 3.5 9.6 0.00 0.00 0.00 77 1016.1
20260507003531 66 326 3.5 9.6 0.00 0.00 0.00 77 1016.2
20260507003052 66 304 4.3 9.6 0.00 0.00 0.00 78 1016.1
20260507002531 66 272 4.3 11.3 0.00 0.00 0.00 78 1016.1
20260507002031 66 275 4.3 11.3 0.00 0.00 0.00 78 1016.2
20260507001543 66 251 5.2 9.6 0.00 0.00 0.00 77 1016.1
20260507001034 67 280 5.2 10.4 0.00 0.00 0.00 78 1016.0
20260507000534 67 298 4.3 10.4 0.00 0.00 0.00 77 1016.0
20260507000044 67 271 3.5 9.6 0.00 0.00 0.00 78 1015.9
20260506235531 67 255 4.3 9.6 0.00 0.00 0.00 77 1015.9
20260506235030 67 342 4.3 9.6 0.00 0.00 0.00 76 1015.9
20260506234548 67 290 3.5 7.8 0.00 0.00 0.00 77 1015.8
20260506234036 67 311 3.5 8.7 0.00 0.00 0.00 77 1015.8
20260506233537 67 277 3.5 8.7 0.00 0.00 0.00 77 1015.8
20260506233055 67 306 4.3 8.7 0.00 0.00 0.00 76 1015.9
20260506232535 67 290 4.3 7.8 0.00 0.00 0.00 76 1015.9
20260506232035 67 219 5.2 9.6 0.00 0.00 0.00 76 1015.9
20260506231549 67 276 5.2 9.6 0.00 0.00 0.00 75 1016.0
20260506231036 67 302 3.5 12.2 0.00 0.00 0.00 76 1016.1
20260506230537 67 298 5.2 12.2 0.00 0.00 0.00 75 1016.1
20260506230052 67 316 5.2 12.2 0.00 0.00 0.00 75 1016.1
20260506225539 67 290 4.3 9.6 0.00 0.00 0.00 76 1016.0
20260506225035 67 292 4.3 8.7 0.00 0.00 0.00 75 1016.0
20260506224548 67 277 3.5 10.4 0.00 0.00 0.00 74 1016.1
20260506224036 67 324 4.3 10.4 0.00 0.00 0.00 75 1016.1
20260506223536 67 308 5.2 10.4 0.00 0.00 0.00 75 1016.2
20260506223048 67 315 6.1 12.2 0.00 0.00 0.00 75 1016.3
20260506222536 67 300 5.2 12.2 0.00 0.00 0.00 76 1016.3
20260506222036 67 289 7.0 12.2 0.00 0.00 0.00 75 1016.3
20260506221544 67 289 5.2 9.6 0.00 0.00 0.00 75 1016.4
20260506221035 67 227 5.2 12.2 0.00 0.00 0.00 75 1016.3
20260506220536 67 264 5.2 12.2 0.00 0.00 0.00 76 1016.4
20260506220046 67 294 6.1 12.2 0.00 0.00 0.00 75 1016.4
20260506215539 67 315 4.3 10.4 0.00 0.00 0.00 75 1016.4
20260506215036 67 277 5.2 10.4 0.00 0.00 0.00 75 1016.4
20260506214553 67 331 6.1 10.4 0.00 0.00 0.00 75 1016.5
20260506214036 67 312 5.2 11.3 0.00 0.00 0.00 75 1016.5
20260506213537 67 279 6.1 11.3 0.00 0.00 0.00 75 1016.5
20260506213102 67 279 7.0 11.3 0.00 0.00 0.00 73 1016.6
20260506212537 67 265 5.2 10.4 0.00 0.00 0.00 74 1016.7
20260506212038 67 252 4.3 9.6 0.00 0.00 0.00 74 1016.6
20260506211548 67 271 4.3 10.4 0.00 0.00 0.00 73 1016.7
20260506211038 67 292 5.2 10.4 0.00 0.00 0.00 74 1016.7
20260506210535 67 294 6.1 11.3 0.00 0.00 0.00 73 1016.8
20260506210049 67 305 5.2 11.3 0.00 0.00 0.00 74 1016.8
20260506205541 67 263 4.3 12.2 0.00 0.00 0.00 74 1016.8
20260506205037 67 248 7.0 12.2 0.00 0.00 0.00 73 1016.9
20260506204550 67 317 6.1 10.4 0.00 0.00 0.00 74 1016.8
20260506204036 67 301 5.2 10.4 0.00 0.00 0.00 75 1016.8
20260506203535 67 253 4.3 12.2 0.00 0.00 0.00 75 1016.9
20260506203045 67 277 4.3 12.2 0.00 0.00 0.00 75 1016.9
20260506202531 67 271 4.3 9.6 0.00 0.00 0.00 74 1016.9
20260506202031 67 255 5.2 9.6 0.00 0.00 0.00 75 1016.9
20260506201542 67 276 6.1 9.6 0.00 0.00 0.00 74 1016.9
20260506201031 67 294 4.3 9.6 0.00 0.00 0.00 74 1017.0
20260506200533 67 311 4.3 11.3 0.00 0.00 0.00 75 1017.0
20260506200047 66 301 6.1 11.3 0.00 0.00 0.00 74 1017.0
20260506195531 66 302 5.2 10.4 0.00 0.00 0.00 75 1017.1
20260506195033 66 290 5.2 10.4 0.00 0.00 0.00 75 1017.1
20260506194546 66 198 5.2 10.4 0.00 0.00 0.00 75 1017.2
20260506194031 66 302 6.1 10.4 0.00 0.00 0.00 73 1017.3
20260506193531 66 299 4.3 9.6 0.00 0.00 0.00 74 1017.3
20260506193048 66 218 5.2 9.6 0.00 0.00 0.00 73 1017.4
20260506192534 67 291 4.3 9.6 0.00 0.00 0.00 72 1017.4
20260506192034 67 258 5.2 8.7 0.00 0.00 0.00 72 1017.5
20260506191553 67 306 3.5 8.7 0.00 0.00 0.00 72 1017.6
20260506191032 67 267 3.5 7.8 0.00 0.00 0.00 71 1017.6
20260506190532 67 283 3.5 7.8 0.00 0.00 0.00 72 1017.6
20260506190050 66 296 3.5 8.7 0.00 0.00 0.00 71 1017.6
20260506185531 66 278 4.3 8.7 0.00 0.00 0.00 71 1017.6
20260506185031 66 222 3.5 7.8 0.00 0.00 0.00 70 1017.7
20260506184546 67 263 3.5 7.8 0.00 0.00 0.00 72 1017.8
20260506184032 67 237 3.5 8.7 0.00 0.00 0.00 71 1017.9
20260506183532 66 335 3.5 8.7 0.00 0.00 0.00 72 1017.9
20260506183045 66 270 2.6 7.0 0.00 0.00 0.00 73 1018.0
20260506182532 66 252 3.5 7.0 0.00 0.00 0.00 73 1018.0
20260506182031 65 257 3.5 7.0 0.00 0.00 0.00 73 1018.0
20260506181548 65 284 2.6 7.0 0.00 0.00 0.00 72 1018.0
20260506181032 65 306 2.6 7.0 0.00 0.00 0.00 74 1018.1
20260506180534 65 286 3.5 7.0 0.00 0.00 0.00 75 1018.2
20260506180050 65 267 3.5 7.0 0.00 0.00 0.00 73 1018.2
20260506175533 64 275 1.7 7.0 0.00 0.00 0.00 74 1018.2
20260506175031 64 302 2.6 7.0 0.00 0.00 0.00 75 1018.2
20260506174550 64 278 2.6 7.0 0.00 0.00 0.00 75 1018.2
20260506174031 64 273 2.6 7.0 0.00 0.00 0.00 75 1018.2
20260506173531 64 263 3.5 7.0 0.00 0.00 0.00 75 1018.3
20260506173058 64 222 2.6 7.0 0.00 0.00 0.00 75 1018.4
20260506172536 63 232 2.6 7.0 0.00 0.00 0.00 76 1018.4
20260506172036 63 265 2.6 7.0 0.00 0.00 0.00 76 1018.5
20260506171558 63 252 2.6 7.0 0.00 0.00 0.00 77 1018.5
20260506171036 63 242 2.6 7.0 0.00 0.00 0.00 77 1018.4
20260506170535 62 241 3.5 7.0 0.00 0.00 0.00 77 1018.4
20260506170104 62 263 2.6 7.0 0.00 0.00 0.00 76 1018.4
20260506165536 62 266 2.6 7.8 0.00 0.00 0.00 77 1018.4
20260506165036 62 305 1.7 7.8 0.00 0.00 0.00 77 1018.4
20260506164548 62 285 2.6 6.1 0.00 0.00 0.00 78 1018.4
20260506164038 62 308 0.9 6.1 0.00 0.00 0.00 77 1018.4
20260506163540 62 289 2.6 6.1 0.00 0.00 0.00 78 1018.4
20260506163111 62 257 1.7 6.1 0.00 0.00 0.00 78 1018.4
20260506162538 61 281 2.6 6.1 0.00 0.00 0.00 79 1018.4
20260506162039 61 0 0.0 0.0 0.00 0.00 0.00 78 1018.4
20260506161545 61 0 0.0 0.9 0.00 0.00 0.00 79 1018.4
20260506161037 61 0 0.0 0.9 0.00 0.00 0.00 79 1018.3
20260506160535 60 0 0.0 0.9 0.00 0.00 0.00 80 1018.4
20260506160045 60 0 0.0 0.0 0.00 0.00 0.00 80 1018.3
20260506155535 60 0 0.0 0.0 0.00 0.00 0.00 81 1018.3
20260506155036 59 0 0.0 0.0 0.00 0.00 0.00 81 1018.3
20260506154607 59 0 0.0 0.0 0.00 0.00 0.00 81 1018.3
20260506154036 59 0 0.0 0.0 0.00 0.00 0.00 82 1018.3
20260506153536 59 0 0.0 0.0 0.00 0.00 0.00 82 1018.3
20260506153054 58 0 0.0 0.0 0.00 0.00 0.00 82 1018.3
20260506152535 58 0 0.0 0.0 0.00 0.00 0.00 82 1018.2
20260506152035 58 0 0.0 0.0 0.00 0.00 0.00 82 1018.2
20260506151552 58 0 0.0 0.0 0.00 0.00 0.00 83 1018.3
20260506151035 57 0 0.0 0.0 0.00 0.00 0.00 83 1018.3
20260506150536 57 0 0.0 0.0 0.00 0.00 0.00 84 1018.3
20260506150045 57 0 0.0 0.0 0.00 0.00 0.00 84 1018.3
20260506145536 57 0 0.0 0.0 0.00 0.00 0.00 84 1018.4
20260506145035 56 0 0.0 0.0 0.00 0.00 0.00 84 1018.3
20260506144546 56 0 0.0 0.0 0.00 0.00 0.00 85 1018.3
20260506144035 56 0 0.0 0.0 0.00 0.00 0.00 85 1018.3
20260506143539 56 0 0.0 0.0 0.00 0.00 0.00 85 1018.3
20260506143104 55 0 0.0 0.0 0.00 0.00 0.00 85 1018.2
20260506142540 55 0 0.0 0.0 0.00 0.00 0.00 85 1018.2
20260506142035 55 0 0.0 0.0 0.00 0.00 0.00 86 1018.1
20260506141550 55 0 0.0 0.0 0.00 0.00 0.00 86 1018.1
20260506141035 55 0 0.0 0.0 0.00 0.00 0.00 86 1018.1
20260506140539 54 0 0.0 0.0 0.00 0.00 0.00 86 1018.1
20260506140047 54 0 0.0 0.0 0.00 0.00 0.00 86 1018.1
20260506135534 54 0 0.0 0.0 0.00 0.04 0.00 86 1018.0
20260506135035 54 0 0.0 0.0 0.00 0.04 0.00 86 1018.0
20260506134548 54 0 0.0 0.0 0.00 0.04 0.00 86 1017.9
20260506134035 54 0 0.0 0.0 0.00 0.04 0.00 86 1017.9
20260506133534 54 0 0.0 0.0 0.00 0.04 0.00 86 1017.8
20260506133043 54 0 0.0 0.0 0.00 0.04 0.00 86 1017.9
20260506132535 54 0 0.0 0.0 0.00 0.04 0.00 85 1017.8
20260506132035 54 0 0.0 0.0 0.00 0.04 0.00 85 1017.7
20260506131548 54 0 0.0 0.0 0.00 0.04 0.00 85 1017.6
20260506131032 54 0 0.0 0.0 0.00 0.04 0.00 85 1017.5
20260506130536 54 0 0.0 0.0 0.00 0.04 0.00 85 1017.4
20260506130052 54 0 0.0 0.0 0.00 0.04 0.00 85 1017.3
20260506125539 54 0 0.0 0.0 0.00 0.05 0.00 85 1017.3
20260506125037 54 0 0.0 0.0 0.00 0.05 0.00 85 1017.2
20260506124546 54 0 0.0 0.0 0.00 0.05 0.00 85 1017.2
20260506124035 54 0 0.0 0.0 0.00 0.05 0.00 85 1017.1
20260506123535 54 0 0.0 0.0 0.00 0.05 0.00 85 1017.1
20260506123048 54 0 0.0 0.0 0.00 0.05 0.00 85 1017.1
20260506122534 54 0 0.0 0.0 0.00 0.05 0.00 85 1017.0
20260506122034 54 0 0.0 0.0 0.00 0.05 0.00 84 1017.1
20260506121546 54 0 0.0 0.0 0.00 0.05 0.00 84 1017.0
20260506121035 54 0 0.0 0.0 0.00 0.05 0.00 85 1017.0
20260506120535 54 0 0.0 0.0 0.00 0.05 0.00 84 1017.0
20260506120058 54 0 0.0 0.0 0.00 0.05 0.00 84 1017.0
20260506115535 54 0 0.0 0.0 0.00 0.10 0.00 84 1017.0
20260506115035 55 0 0.0 0.0 0.00 0.10 0.00 84 1017.0
20260506114557 55 0 0.0 0.0 0.00 0.10 0.00 84 1017.0
20260506114032 55 0 0.0 0.0 0.00 0.10 0.00 84 1017.0
20260506113537 55 0 0.0 0.0 0.00 0.10 0.00 84 1017.0
20260506113047 55 0 0.0 0.0 0.00 0.10 0.00 84 1017.0
20260506112534 55 0 0.0 0.0 0.00 0.10 0.00 84 1017.0
20260506112037 55 0 0.0 0.0 0.00 0.10 0.00 84 1017.0
20260506111549 55 0 0.0 0.0 0.00 0.10 0.00 84 1017.0
20260506111035 55 0 0.0 0.0 0.00 0.10 0.00 84 1017.0
20260506110535 55 0 0.0 0.0 0.00 0.10 0.00 83 1017.0
20260506110054 55 0 0.0 0.0 0.00 0.10 0.00 83 1017.0
20260506105535 55 0 0.0 0.0 0.00 0.20 0.00 83 1016.9
20260506105034 55 0 0.0 0.0 0.00 0.20 0.00 83 1017.0
20260506104546 55 0 0.0 0.0 0.00 0.20 0.00 83 1017.0
20260506104032 55 0 0.0 0.0 0.00 0.20 0.00 83 1017.0
20260506103536 56 0 0.0 0.0 0.00 0.20 0.00 83 1017.0
20260506103048 56 0 0.0 0.0 0.00 0.20 0.00 83 1016.9
20260506102536 56 0 0.0 0.0 0.00 0.20 0.00 83 1017.0
20260506102036 56 0 0.0 0.0 0.00 0.20 0.00 83 1017.0
20260506101556 56 0 0.0 0.0 0.00 0.20 0.00 82 1017.0
20260506101038 56 0 0.0 0.0 0.00 0.20 0.00 82 1016.9
20260506100535 56 0 0.0 0.0 0.00 0.20 0.00 82 1016.8
20260506100048 56 0 0.0 0.0 0.00 0.20 0.00 82 1016.9
20260506095536 56 0 0.0 0.0 0.00 0.20 0.00 82 1016.9
20260506095037 56 0 0.0 0.0 0.00 0.20 0.00 82 1016.9
20260506094606 56 0 0.0 0.0 0.00 0.20 0.00 82 1016.8
20260506094032 56 0 0.0 0.0 0.00 0.20 0.00 81 1016.9
20260506093537 56 0 0.0 0.0 0.00 0.20 0.00 81 1016.8
20260506093049 56 0 0.0 0.0 0.00 0.20 0.00 81 1016.9
20260506092535 56 0 0.0 0.0 0.00 0.20 0.00 81 1017.0
20260506092035 57 0 0.0 0.0 0.00 0.20 0.00 81 1017.0
20260506091542 57 0 0.0 0.0 0.00 0.20 0.00 81 1017.0
20260506091035 57 0 0.0 0.0 0.00 0.20 0.00 81 1017.0
20260506090534 57 0 0.0 0.0 0.00 0.20 0.00 81 1017.1
20260506090049 57 0 0.0 0.0 0.00 0.20 0.00 81 1017.2
20260506085534 57 0 0.0 0.0 0.00 0.20 0.00 81 1017.2
20260506085037 57 0 0.0 0.0 0.00 0.20 0.00 81 1017.3
20260506084548 57 0 0.0 0.0 0.00 0.20 0.00 81 1017.3
20260506084035 57 0 0.0 0.0 0.00 0.20 0.00 80 1017.3
20260506083534 57 0 0.0 0.0 0.00 0.20 0.00 80 1017.4
20260506083049 57 0 0.0 0.0 0.00 0.20 0.00 80 1017.4
20260506082533 57 0 0.0 0.0 0.00 0.20 0.00 80 1017.5
20260506082033 58 0 0.0 0.0 0.00 0.20 0.00 80 1017.5
20260506081547 58 0 0.0 0.0 0.00 0.20 0.00 80 1017.5
20260506081034 58 0 0.0 0.0 0.00 0.20 0.00 80 1017.6
20260506080533 58 0 0.0 0.0 0.00 0.20 0.00 80 1017.6
20260506073047 58 0 0.0 0.9 0.00 0.20 0.00 78 1017.7
20260506072532 58 0 0.0 0.9 0.00 0.20 0.00 79 1017.8
20260506072034 58 0 0.0 0.9 0.00 0.20 0.00 79 1017.8
20260506071550 58 0 0.0 0.0 0.00 0.20 0.00 79 1017.8
20260506071032 59 0 0.0 0.0 0.00 0.20 0.00 79 1017.8
20260506070533 59 0 0.0 0.0 0.00 0.20 0.00 78 1017.8